Wind_Speed
15 15 16 19 19 18 20 20 18 17 18 19 18 15 15 15 22 26 21 17 14 14 12 7 7 6 5 13 20 26 28 28 29 30 32 33 34 31 27 27 25 22 24 24 21 19 20 21 21 21 19 17 17 16 16 15 15 14 12 13 14 14 15 15 16 17 17 17 17 17 16 15 15 15 15 14 14 14 13 12 11 12 13 12 12 12
15 16 16 15 16 15 16 17 17 16 19 20 20 19 18 16 14 27 23 18 16 12 9 6 6 5 5 10 19 26 28 29 31 31 30 31 33 31 27 28 26 23 23 24 23 20 19 21 22 21 20 18 16 16 16 15 15 14 13 13 14 14 15 16 16 17 18 17 17 16 15 15 14 14 14 13 13 13 12 12 11 11 11 10 10 10
15 17 16 12 12 13 14 16 17 17 19 21 18 18 18 12 12 29 21 18 16 10 10 8 5 5 5 8 16 23 26 27 29 29 28 29 30 31 27 27 28 25 24 25 24 21 21 22 21 20 20 18 16 15 16 15 15 14 14 14 14 15 16 17 17 17 18 18 17 17 15 15 14 14 14 13 13 13 12 12 12 11 11 11 10 10
17 14 13 13 13 13 14 16 16 17 20 22 19 19 20 9 15 27 20 15 12 8 11 10 7 7 5 7 13 19 24 27 28 28 28 28 29 29 27 26 28 27 25 25 25 24 23 23 20 19 19 18 16 16 16 16 16 15 14 14 15 16 16 17 18 18 18 18 18 18 17 16 15 14 14 13 13 13 12 12 12 12 12 11 11 10
17 11 8 12 16 16 16 16 16 16 18 20 20 21 20 11 9 21 21 15 9 6 14 16 11 8 8 9 13 17 23 27 28 29 28 28 29 30 29 28 27 28 27 26 27 26 26 24 20 18 19 18 16 16 16 16 16 15 14 14 15 16 17 18 19 19 19 19 19 19 18 17 16 15 14 14 14 13 12 12 12 12 12 12 11 10
18 13 9 11 16 17 18 18 17 17 18 18 19 22 21 12 7 17 19 17 15 15 22 19 9 8 12 12 14 15 19 24 27 28 27 27 27 29 30 30 28 28 28 27 27 27 26 25 20 17 19 18 15 15 16 16 15 15 14 14 14 16 18 19 19 20 19 19 18 17 17 16 16 15 14 13 13 13 12 12 11 12 12 12 11 11
18 15 14 14 14 16 19 19 18 18 18 18 18 21 21 17 11 13 16 18 21 23 28 23 10 10 15 16 15 15 15 20 25 25 26 26 26 27 29 30 30 29 29 28 27 27 26 26 22 18 19 18 15 16 16 17 16 15 15 14 14 15 17 19 19 20 19 18 17 16 15 14 14 14 14 13 13 13 12 12 12 11 12 12 11 11
17 17 17 16 16 17 19 20 19 17 16 16 17 16 17 19 17 13 16 16 14 18 27 26 17 14 19 20 17 16 15 17 22 24 26 27 26 27 28 28 30 29 30 29 28 28 27 27 24 19 19 18 15 15 16 17 16 15 15 15 14 14 16 18 19 19 18 18 17 16 16 15 16 15 14 13 13 13 13 12 12 11 11 11 11 11
15 17 18 17 19 20 19 20 19 16 16 17 15 13 15 16 16 15 17 15 9 12 23 26 19 11 14 21 18 16 18 17 22 25 26 27 26 27 28 28 29 30 31 29 27 29 29 28 27 22 19 19 17 16 16 17 15 15 15 15 15 15 15 17 18 18 18 18 18 17 17 17 17 17 16 14 14 13 13 12 12 12 11 11 11 11
13 14 17 19 18 18 18 18 20 18 16 17 17 17 17 16 18 17 14 14 13 12 16 23 24 12 9 21 25 22 22 21 22 23 22 24 25 26 27 27 28 30 31 29 25 28 31 30 28 25 21 20 19 17 17 17 16 15 16 16 16 16 15 15 17 18 18 19 19 18 17 17 16 17 16 16 15 13 12 11 11 11 11 11 11 11
16 11 13 19 18 16 16 14 18 22 15 11 17 20 17 16 17 17 12 11 9 8 10 15 21 15 8 20 30 24 21 20 21 21 20 22 22 23 26 25 25 28 29 30 27 28 31 32 29 29 26 22 21 19 18 18 16 16 17 16 16 16 16 15 15 17 18 19 19 18 17 16 15 15 15 15 15 14 12 11 10 11 11 11 11 11
17 13 14 19 18 15 14 10 13 21 16 9 13 17 15 14 14 16 16 12 4 4 9 13 15 12 7 19 30 22 15 16 19 18 19 22 22 22 23 22 23 26 27 29 29 29 31 32 31 30 29 25 23 22 21 19 17 16 17 17 16 16 16 16 15 16 18 19 19 19 18 17 16 15 14 14 14 13 12 11 11 10 10 11 11 11
16 18 17 19 20 16 12 11 12 19 20 14 15 18 14 9 6 6 9 8 4 7 10 12 11 8 7 16 25 21 16 17 17 15 15 19 21 20 20 21 22 25 27 28 28 29 31 32 31 30 30 28 24 23 23 21 19 17 17 17 16 16 16 16 16 15 16 18 18 19 18 17 16 15 14 13 13 12 11 11 10 10 10 10 10 10
18 16 15 16 23 21 14 16 17 17 19 17 18 20 14 5 0 1 1 3 3 11 14 16 9 9 15 17 19 21 18 16 15 15 15 17 19 18 18 20 21 23 24 25 26 28 30 32 32 32 30 27 25 24 23 22 21 18 18 17 16 16 16 16 16 15 15 16 17 18 18 18 17 16 14 13 12 12 11 11 10 9 10 10 10 10
14 12 14 12 15 16 14 20 22 15 15 18 19 20 17 10 4 3 2 2 2 10 17 17 7 12 20 19 19 20 17 15 16 16 15 16 18 17 18 21 22 22 23 23 25 28 29 30 31 31 29 25 25 27 26 24 22 19 19 19 17 16 16 16 16 15 14 15 16 18 19 18 17 16 15 14 12 11 11 11 10 10 10 10 11 10
11 10 15 15 12 12 14 22 25 15 12 18 21 19 19 15 8 5 6 11 14 13 11 7 10 18 23 22 20 18 17 17 17 16 15 15 17 18 19 21 22 22 23 23 24 27 29 28 28 30 30 26 26 28 27 26 24 18 18 20 19 16 15 16 16 15 14 14 14 16 18 19 18 18 17 15 13 12 11 11 10 10 10 10 11 11
9 11 12 12 13 15 14 18 24 18 10 13 22 24 20 13 11 11 10 14 17 9 4 13 20 22 24 23 20 18 20 21 18 17 16 15 17 19 19 20 21 22 23 23 24 25 27 28 28 28 28 26 27 29 28 27 26 20 17 20 21 19 16 16 16 15 15 14 14 14 16 18 19 19 17 16 14 13 12 12 11 11 11 11 11 11
10 12 15 11 10 15 16 13 20 21 13 11 19 25 22 13 15 16 6 5 8 3 6 17 28 29 23 19 21 22 23 23 20 18 18 17 18 18 19 21 22 22 22 21 23 24 24 26 25 25 25 25 28 30 30 30 28 23 18 19 21 21 18 16 16 15 15 15 14 14 14 16 18 18 18 17 15 14 13 12 12 12 11 11 11 11
9 10 14 11 8 11 19 16 16 20 19 14 11 18 23 14 10 12 5 1 2 1 3 10 19 20 18 23 28 27 26 26 22 20 19 18 18 18 19 21 21 21 20 19 21 22 23 24 23 23 24 25 27 28 29 30 29 27 23 20 21 22 21 20 18 16 16 15 14 14 13 14 16 17 18 18 17 16 15 13 13 12 12 12 11 11
6 9 8 8 3 4 16 18 15 17 17 14 8 11 20 17 7 6 7 6 5 2 3 4 2 1 11 26 31 28 28 25 21 22 23 22 22 21 20 20 20 19 19 20 21 23 24 24 24 24 24 24 24 24 26 29 30 29 27 23 22 22 22 22 21 19 18 17 16 15 14 13 14 15 17 18 18 18 16 15 14 14 13 13 13 12
9 9 8 7 2 2 8 14 18 17 15 17 18 11 13 18 15 9 9 12 12 4 5 5 1 1 15 26 28 31 32 26 22 24 25 25 25 25 24 22 20 18 19 21 22 24 26 25 25 26 25 25 25 25 27 30 31 31 29 27 26 24 22 20 19 19 19 18 17 17 16 14 14 14 15 17 18 19 18 17 16 15 15 14 14 13
9 7 7 9 9 10 8 11 18 19 13 15 22 17 8 9 15 10 8 14 19 10 10 13 4 5 17 19 18 25 29 26 25 24 24 25 26 25 25 23 21 19 19 20 21 24 27 28 27 27 26 25 23 24 28 30 31 32 32 31 31 28 24 21 19 18 19 18 18 18 18 17 16 15 15 15 16 17 19 19 17 17 16 16 15 15
6 5 9 14 15 14 12 10 16 20 16 10 14 18 11 7 15 12 4 8 12 5 16 19 10 9 16 16 16 20 23 22 21 20 22 25 25 24 25 24 23 21 19 19 20 23 26 28 28 27 24 23 22 23 24 25 26 26 25 26 27 25 22 22 20 19 20 21 21 20 19 19 19 19 18 17 15 15 17 19 19 18 18 17 16 16
7 5 10 14 13 12 12 9 14 17 16 11 9 17 17 11 14 12 2 5 2 12 19 14 7 9 15 16 17 19 19 17 14 15 19 23 24 23 24 26 25 21 18 17 18 20 24 26 25 24 22 22 22 22 21 22 21 21 22 22 23 22 22 24 22 20 20 21 22 22 21 19 19 19 19 19 17 15 14 16 18 19 19 18 18 17
3 1 5 10 8 6 4 6 12 15 15 13 9 14 22 17 10 10 8 2 4 13 21 15 8 12 17 17 18 19 20 18 13 13 16 20 23 22 22 25 25 22 20 19 18 19 21 23 22 21 19 20 22 22 21 20 18 20 23 23 22 21 21 22 22 21 21 21 22 24 23 22 20 18 18 19 18 17 16 15 16 17 18 20 19 19
1 2 2 6 4 3 5 3 1 2 8 13 10 13 22 17 4 5 5 7 10 9 17 20 19 22 23 19 20 20 20 17 10 10 11 13 17 20 21 21 21 20 20 20 21 20 19 20 20 17 15 16 18 20 20 18 18 19 20 19 19 19 19 20 20 20 19 20 21 24 25 26 25 22 19 18 18 18 18 18 17 16 17 18 19 20
2 2 1 6 7 4 7 8 8 10 6 7 13 18 20 10 3 7 8 14 13 10 9 16 26 30 27 21 20 20 19 16 11 7 5 7 10 16 20 19 17 16 15 16 18 19 18 18 17 14 12 11 12 14 16 18 19 20 19 18 18 19 19 19 18 17 18 18 20 22 25 29 29 24 20 18 18 18 18 18 18 17 17 17 18 19
5 5 2 6 11 11 9 10 8 9 11 8 9 16 18 10 4 9 7 11 11 12 10 14 26 30 27 23 21 20 18 15 11 8 5 3 7 14 19 19 17 16 14 13 14 15 16 15 13 12 11 10 9 10 13 15 17 18 18 18 17 17 17 17 16 17 20 20 21 22 23 26 27 23 21 21 21 21 20 19 17 17 16 16 16 16
4 5 2 5 10 14 13 12 10 6 9 10 8 12 14 6 3 6 4 3 5 11 16 21 26 26 25 23 21 20 19 15 12 9 5 1 5 12 18 19 18 17 15 13 13 15 16 14 12 11 10 11 9 9 11 13 13 14 14 16 16 15 15 15 16 18 20 21 21 22 23 24 23 21 20 21 23 23 23 22 20 19 18 16 16 16
0 2 3 5 6 7 11 12 10 6 7 10 10 11 9 5 10 7 3 4 7 15 22 26 27 25 25 25 23 24 23 20 16 12 6 2 4 9 16 18 18 17 15 13 12 14 16 16 14 12 11 11 10 10 12 12 13 14 14 14 16 16 15 14 15 18 20 20 21 22 23 23 22 20 18 20 22 24 25 24 23 23 22 20 19 17
2 1 3 6 4 4 7 10 10 9 9 12 12 12 10 7 9 10 10 10 13 21 26 29 29 28 26 25 24 26 26 24 22 16 11 6 6 9 15 17 15 15 15 13 12 11 13 15 15 14 12 11 11 11 12 13 13 14 15 15 16 16 17 16 16 18 21 22 22 22 22 22 21 20 19 19 21 24 25 26 26 25 25 25 23 19
3 1 1 4 7 7 3 2 7 11 12 11 10 11 10 4 2 7 7 7 11 17 22 27 30 29 27 26 25 25 24 24 23 20 17 13 9 9 14 16 14 13 13 13 13 11 10 11 12 13 12 12 12 12 12 13 13 13 14 16 17 17 18 19 19 19 20 21 21 20 19 20 21 19 19 19 20 21 23 25 26 26 25 26 25 22
4 4 2 3 7 9 5 6 7 9 7 8 7 9 11 7 4 2 4 3 6 7 11 20 27 29 29 28 26 23 22 22 24 22 19 14 9 8 13 16 14 13 13 12 12 11 10 9 8 9 10 11 12 13 13 14 15 15 16 16 17 18 19 21 20 19 18 19 19 18 18 20 20 19 19 18 18 18 20 22 23 23 24 26 26 25
1 5 5 1 5 8 8 9 6 6 1 3 3 7 9 4 3 6 9 7 6 4 7 16 25 29 28 25 23 22 21 21 23 23 19 14 8 6 12 15 13 13 13 12 12 11 11 10 9 8 8 8 8 9 10 12 15 17 18 18 18 18 19 20 20 18 18 18 19 19 19 20 21 20 19 19 18 16 15 17 19 20 22 24 26 27
2 3 6 5 7 9 8 7 2 3 2 2 3 9 7 2 8 9 13 13 10 8 12 20 26 28 26 25 24 22 19 18 19 18 15 13 8 5 10 14 13 12 12 11 11 11 11 11 11 10 8 7 6 6 7 8 9 12 14 16 18 19 19 20 20 20 20 19 19 20 20 21 21 22 22 21 21 18 13 12 14 17 21 23 24 25
4 3 3 5 8 8 5 4 3 2 3 4 7 10 9 6 8 6 11 15 12 10 15 21 24 23 22 22 23 21 19 15 13 11 8 7 6 5 8 13 14 12 11 10 9 9 10 10 11 10 9 8 6 6 6 6 6 7 8 11 14 16 18 20 21 21 21 21 21 22 22 22 22 23 23 23 23 23 20 16 13 14 18 21 23 24
7 5 3 4 7 7 6 6 5 4 3 5 7 7 8 8 10 8 11 13 10 10 16 20 22 20 18 17 17 19 16 12 10 8 6 7 8 8 8 11 14 13 12 11 9 9 9 9 10 10 10 9 8 7 6 5 5 5 5 6 8 10 13 16 18 20 21 21 22 23 24 24 24 24 25 25 25 26 25 24 21 19 18 19 21 24
8 7 5 5 5 6 6 6 4 5 3 4 6 6 7 8 10 9 8 9 7 7 11 18 19 16 15 15 14 13 12 11 10 8 5 6 11 13 12 13 15 15 14 12 11 10 10 9 10 10 10 10 10 9 8 7 6 5 5 5 6 6 8 10 12 15 17 19 21 23 24 25 26 27 27 27 27 27 27 27 27 26 25 23 22 22
6 8 9 9 6 4 4 5 3 2 5 9 10 10 12 11 10 10 7 8 8 5 7 14 17 15 14 13 11 11 12 12 13 15 14 11 12 13 14 14 15 16 15 13 12 12 11 11 11 10 10 11 11 9 9 9 8 8 6 6 6 6 7 8 9 10 12 14 17 19 21 23 24 26 27 27 27 27 28 28 29 29 30 29 27 26
5 7 9 11 11 7 5 6 4 0 6 10 13 13 14 12 10 9 6 9 12 9 9 16 19 17 15 14 13 15 14 12 16 20 18 16 16 15 16 16 16 16 15 14 14 14 12 11 12 12 11 12 11 10 10 10 11 11 10 8 8 8 8 8 8 8 8 9 11 13 16 19 21 23 25 26 27 28 29 30 31 31 31 32 32 31
5 5 6 9 10 9 8 8 5 3 7 13 15 14 13 11 9 9 11 15 18 15 15 20 21 18 17 18 19 18 13 11 17 20 18 19 19 19 21 22 21 20 18 16 16 16 14 12 14 14 13 14 14 13 13 13 13 13 13 12 11 10 9 9 9 9 9 8 8 9 11 14 16 19 22 24 26 28 29 30 32 32 33 33 34 34
6 5 6 8 9 8 10 10 5 5 10 15 14 12 11 10 9 11 16 23 24 20 18 21 23 22 20 20 22 22 17 15 18 19 21 22 22 23 25 26 25 24 22 20 21 20 17 16 17 17 17 18 17 16 16 15 15 16 16 15 15 13 13 12 11 11 11 10 10 9 9 10 12 14 17 20 23 26 27 29 31 32 34 35 35 35
7 6 6 7 9 9 11 10 6 6 11 15 14 12 11 10 10 13 18 24 25 24 21 20 21 23 22 20 23 24 23 22 21 21 22 23 24 26 28 28 28 26 24 25 25 23 20 20 20 20 21 22 21 19 19 19 19 19 19 19 18 17 17 16 14 13 13 12 12 11 10 11 11 12 14 15 17 20 23 26 28 31 33 35 36 36
8 8 7 6 8 9 9 8 6 6 11 15 14 13 12 11 10 13 17 20 23 24 25 23 20 21 22 22 23 24 24 26 27 26 25 26 27 29 32 33 32 29 28 28 28 25 23 23 22 22 23 23 22 22 23 23 23 23 23 22 22 21 21 19 18 16 15 15 15 14 13 12 12 13 13 14 14 14 16 19 23 26 30 32 34 35
8 10 10 9 8 7 6 6 5 5 8 11 12 12 12 10 10 12 14 17 20 21 24 26 23 23 24 24 25 25 24 26 28 29 29 30 30 31 33 34 34 33 31 31 30 28 27 27 27 26 25 24 24 24 25 25 26 26 27 26 26 25 24 23 21 21 19 18 17 17 16 15 14 14 14 14 14 14 14 15 16 20 24 27 29 31
8 9 12 13 12 11 10 11 10 9 10 11 11 12 12 11 11 11 11 14 17 18 21 24 25 26 27 26 27 27 26 26 29 29 29 29 29 30 31 34 35 35 32 30 27 26 26 28 29 28 28 27 27 28 28 28 28 28 29 29 29 29 28 27 26 25 23 22 21 20 19 18 17 16 16 15 14 14 14 14 15 16 19 22 25 27
8 9 11 12 13 12 10 11 13 14 14 14 13 12 11 12 13 14 14 16 18 19 20 22 23 25 26 27 29 30 29 29 30 29 27 27 27 28 29 31 32 31 29 27 25 24 24 25 26 27 27 27 27 28 28 28 28 29 30 31 31 32 32 31 30 29 28 26 25 24 22 21 20 19 19 18 17 16 15 15 15 15 16 18 22 25
8 10 10 10 10 10 8 5 7 9 9 10 11 11 10 11 14 16 18 18 19 20 21 21 22 22 23 25 28 29 29 28 28 27 26 25 26 27 27 26 26 27 26 26 26 25 23 23 24 25 26 27 27 28 28 28 28 28 28 29 30 31 32 33 34 34 33 31 30 28 27 25 24 23 22 21 20 19 18 17 17 16 16 16 18 21
11 10 10 9 9 11 12 11 11 11 11 11 10 8 9 11 13 14 16 18 18 18 19 19 20 21 23 26 27 28 28 28 27 25 25 25 26 27 27 24 23 24 25 25 26 25 24 23 24 25 26 27 27 28 28 28 28 28 28 28 28 29 30 31 33 34 34 35 35 34 32 31 29 27 26 25 24 23 21 20 19 19 18 18 17 19
16 14 13 14 13 13 16 17 16 16 15 16 16 15 13 12 11 11 13 17 19 20 19 17 17 19 23 26 29 30 29 28 27 26 25 26 27 28 27 25 23 22 23 23 23 23 23 23 24 25 26 26 26 26 26 26 26 26 27 27 27 27 27 28 29 30 32 34 35 36 36 36 35 33 31 29 28 27 26 24 23 22 21 21 20 19
18 18 18 17 16 16 18 19 19 18 18 18 21 22 22 20 18 15 13 14 18 22 22 19 17 18 20 23 26 29 29 28 27 27 27 28 29 28 25 23 22 20 19 19 20 21 22 23 24 24 24 23 23 22 23 23 24 24 25 25 25 25 25 26 26 27 28 30 31 33 35 36 37 38 37 35 34 32 30 28 27 26 25 25 24 22
Wind_Direction
204 206 218 218 215 212 204 200 203 216 232 246 261 264 259 242 206 195 194 193 189 178 177 208 217 195 193 200 197 194 191 189 188 188 185 181 183 188 181 174 196 208 184 190 209 201 196 195 194 202 205 202 197 197 201 196 192 191 184 181 178 172 169 171 169 166 165 165 165 162 157 157 154 149 146 143 142 142 143 143 140 140 144 147 148 148
209 211 219 225 225 209 200 213 218 224 241 254 274 281 285 290 214 182 173 165 173 182 183 205 212 185 176 192 196 194 192 190 189 189 188 187 187 188 185 181 191 201 188 189 204 206 199 198 200 203 206 206 198 196 201 197 192 189 183 182 180 174 170 172 172 168 167 166 166 165 160 159 157 151 148 147 145 145 146 147 147 148 148 150 150 150
213 215 216 217 222 210 198 213 229 239 249 256 267 273 280 299 161 163 162 153 162 178 179 188 208 182 169 192 199 197 194 191 190 192 192 194 193 191 191 188 187 192 189 190 199 203 201 204 206 204 207 209 200 198 201 197 193 188 184 181 179 176 171 172 174 171 170 169 168 168 164 163 161 154 152 152 150 150 151 150 151 152 152 153 155 156
215 224 219 208 208 216 214 213 224 236 249 255 256 258 265 270 150 155 159 159 162 167 171 180 196 184 175 197 201 200 199 193 188 192 195 198 199 195 195 194 192 189 186 190 198 200 202 209 211 206 208 209 202 198 198 198 196 190 187 182 179 179 174 174 176 175 174 174 174 172 169 169 165 159 159 159 156 156 155 154 155 154 153 156 158 159
215 234 238 213 202 210 222 222 226 231 242 250 248 250 255 259 182 163 163 166 158 155 175 174 168 180 194 196 195 199 200 196 192 193 195 198 200 198 197 200 197 189 186 189 197 202 205 213 215 205 206 210 203 198 197 199 198 192 189 186 184 181 177 177 179 179 180 180 179 176 174 173 166 165 168 165 162 160 158 157 158 156 154 155 158 161
222 225 239 227 204 208 220 223 226 229 237 243 243 245 241 238 188 160 162 167 159 163 182 182 160 176 204 201 193 195 196 199 201 201 198 198 201 200 199 203 198 191 189 188 195 205 208 217 221 205 205 212 202 196 197 200 201 196 192 190 189 186 181 181 183 184 186 185 183 180 179 175 168 170 172 168 165 163 160 160 160 159 157 156 159 162
225 215 223 229 212 208 218 223 223 224 237 242 234 236 238 241 228 182 173 177 176 178 189 201 200 178 197 201 194 194 190 195 203 205 201 199 201 201 200 203 198 194 194 189 191 205 211 218 225 211 205 211 203 196 196 200 201 198 197 195 192 191 187 186 187 189 189 186 184 184 183 175 171 174 175 173 169 166 167 163 161 162 160 158 160 163
224 217 217 221 218 211 215 223 223 220 230 228 217 228 239 244 248 220 188 186 195 185 184 202 210 182 190 198 192 192 188 189 199 200 199 199 199 199 201 203 201 199 199 193 188 198 210 222 228 221 209 210 206 198 198 200 200 197 198 198 195 194 193 193 193 193 191 187 186 187 185 180 178 178 179 179 173 170 172 168 165 166 162 160 160 163
217 220 215 213 218 215 216 222 220 216 219 217 219 231 233 232 240 230 199 195 225 195 178 194 203 177 183 192 187 188 189 186 190 192 193 194 196 197 200 202 204 204 202 201 195 192 202 220 232 231 217 212 212 204 201 203 199 196 199 200 198 196 197 198 197 196 192 188 189 191 189 188 185 182 182 183 180 177 177 173 171 171 166 164 164 164
217 220 215 215 220 218 219 222 215 210 217 228 229 224 231 236 230 229 210 198 226 217 183 192 194 175 170 186 186 189 192 186 181 185 192 194 194 198 200 200 203 206 205 207 205 194 196 210 228 238 229 218 217 209 204 206 201 196 200 202 201 198 198 200 199 198 196 192 193 194 193 195 192 188 187 186 185 182 179 178 178 177 172 168 168 167
236 229 215 213 218 219 221 220 208 205 211 226 222 224 251 261 234 236 235 207 224 230 210 215 202 186 174 187 189 191 194 192 182 180 186 192 194 199 202 201 200 205 207 207 207 203 199 201 214 233 237 229 223 215 207 208 203 196 202 203 201 202 200 200 201 201 200 198 196 196 196 199 198 196 195 192 189 187 183 183 185 184 179 173 172 170
245 238 227 213 210 212 213 212 194 195 201 209 217 230 260 266 242 239 230 211 226 237 229 243 216 187 177 190 196 200 198 199 196 191 189 188 191 198 200 200 200 203 204 205 208 209 206 202 205 220 234 235 230 222 212 210 207 197 202 206 201 203 203 201 203 203 204 203 200 200 200 202 203 200 202 200 196 193 189 189 190 191 187 180 178 175
244 242 235 211 205 206 198 195 192 196 208 219 224 228 236 247 250 233 205 184 210 235 232 243 223 168 142 178 192 200 201 201 206 210 208 194 192 197 196 195 200 202 203 205 208 209 207 207 207 211 223 229 226 226 221 214 211 200 201 209 206 204 205 204 205 205 206 207 206 206 205 206 207 204 203 203 203 200 197 198 197 193 192 189 186 182
229 236 226 196 194 200 193 193 204 212 219 223 223 223 226 230 145 140 147 89 203 226 228 242 240 134 130 149 168 184 191 194 197 205 212 203 198 200 195 195 200 203 206 208 210 212 209 211 214 212 217 219 211 219 230 225 217 207 201 209 210 205 204 205 207 207 208 209 209 210 210 211 211 208 206 205 207 208 205 205 204 199 197 196 194 191
225 227 221 205 187 197 205 201 205 215 219 219 218 224 233 232 197 144 138 90 200 235 235 238 227 141 139 140 152 173 183 181 180 187 197 201 201 199 196 198 202 204 208 209 210 214 213 214 219 218 220 220 206 208 225 235 230 213 201 208 212 208 206 205 206 208 209 211 212 214 215 215 215 213 212 209 209 212 210 209 210 209 205 201 200 199
258 240 223 226 224 227 221 204 208 226 235 218 217 230 237 227 207 187 196 201 206 229 240 197 139 145 147 139 145 159 164 164 166 173 181 188 193 194 196 200 203 204 207 209 210 214 214 214 220 222 220 222 215 207 213 232 238 219 197 203 211 210 209 208 208 209 209 211 213 216 217 219 219 218 216 214 212 212 214 212 212 215 214 207 206 206
296 263 233 228 228 219 207 202 213 231 248 213 213 226 227 212 207 213 220 219 212 210 162 119 120 139 148 146 156 157 153 157 160 169 175 177 182 186 193 202 205 204 205 208 210 212 214 215 219 223 221 221 220 212 207 218 232 227 201 198 207 210 207 207 209 210 211 213 213 215 218 219 222 222 221 219 216 214 216 217 215 216 218 216 213 210
348 281 250 239 236 216 205 219 224 222 233 228 217 218 216 220 227 220 227 255 228 193 140 141 140 149 152 154 167 166 161 162 159 165 172 174 179 181 187 199 207 207 206 209 212 212 214 218 220 224 224 220 218 216 211 211 220 227 214 195 199 208 208 206 208 211 213 214 214 216 218 219 221 223 224 223 221 219 218 219 220 221 222 221 219 217
356 297 251 229 260 229 195 206 223 214 226 244 223 203 209 231 246 218 204 343 256 132 120 147 147 152 152 152 159 162 164 164 156 156 161 167 177 182 187 198 206 210 210 211 212 212 215 218 220 223 225 223 219 219 219 215 214 221 220 205 198 204 207 204 204 209 213 214 216 217 218 219 219 221 224 225 225 225 223 222 223 226 227 227 225 223
331 310 260 206 261 231 184 200 221 210 215 227 206 195 216 231 258 237 228 245 245 205 106 131 152 144 151 155 158 158 159 156 151 156 164 170 177 182 187 195 201 206 210 211 208 209 216 220 219 219 223 225 222 220 224 225 221 222 225 219 209 209 211 209 205 204 207 210 212 216 219 220 220 219 221 224 226 228 228 226 226 228 229 231 232 230
308 316 286 234 260 313 204 212 219 209 208 211 210 231 241 225 225 253 264 248 246 249 112 124 330 197 164 161 155 150 149 151 160 168 173 180 183 183 184 189 195 200 204 206 205 206 211 216 218 217 220 221 217 215 220 226 225 222 224 223 217 214 214 217 217 213 212 212 210 212 215 218 223 223 222 224 226 228 230 230 229 230 231 233 236 237
307 334 296 277 308 309 267 229 223 224 228 219 213 226 254 221 215 239 276 252 253 253 161 146 119 139 161 162 151 146 147 154 171 179 180 185 189 187 186 188 191 197 203 205 207 207 207 210 214 217 220 221 218 214 217 221 223 222 222 222 223 221 214 213 219 221 222 223 220 216 212 212 218 223 224 227 227 227 230 233 233 233 234 235 237 240
287 304 275 288 306 287 260 242 238 237 241 238 208 208 221 233 220 222 297 280 266 225 147 138 115 128 156 165 161 159 160 164 175 182 183 190 194 189 189 192 195 199 206 210 211 210 210 210 213 216 221 224 224 222 221 223 226 229 231 232 235 235 225 216 217 220 222 226 229 226 219 213 214 217 220 224 228 227 227 231 235 236 237 239 238 239
250 271 271 293 301 263 237 220 223 230 239 253 233 214 222 238 224 213 304 345 50 122 130 119 95 140 159 166 161 154 156 164 176 183 186 195 200 196 190 190 194 197 202 211 214 210 210 212 215 221 226 228 229 228 227 228 229 230 232 233 235 237 231 223 221 220 218 223 228 229 227 222 219 219 220 220 223 226 225 228 233 235 238 241 242 242
258 300 283 298 310 283 250 188 191 207 225 248 265 229 227 242 242 215 221 290 69 132 145 133 120 149 156 163 162 149 140 147 171 195 197 195 194 191 186 185 192 198 200 209 214 209 210 214 220 228 232 234 235 232 230 231 232 232 229 223 224 231 228 222 222 222 222 226 228 225 224 223 219 219 223 223 220 221 222 224 230 234 238 242 244 245
26 56 313 290 304 337 317 303 118 180 221 237 254 234 230 243 253 178 167 85 78 124 149 143 143 153 159 161 159 151 141 140 164 204 213 207 189 177 173 177 187 195 200 207 210 210 207 207 212 220 225 232 234 231 229 231 234 239 238 228 222 226 226 221 222 224 227 231 229 224 224 223 217 210 215 224 225 223 220 216 218 223 230 239 245 246
149 173 279 275 252 264 306 313 345 6 351 255 243 241 244 255 109 124 89 80 108 126 129 152 155 154 160 161 150 151 149 139 139 150 184 228 204 172 163 165 173 181 186 191 199 205 204 199 202 204 204 213 223 224 225 227 230 237 243 237 223 218 221 222 221 223 227 230 228 227 229 230 224 212 209 222 228 230 231 223 216 215 216 225 237 245
191 212 245 283 262 258 287 310 323 354 2 338 269 263 270 276 187 163 110 82 127 127 104 153 159 152 160 162 150 148 143 126 113 106 110 208 191 163 157 160 168 174 172 168 176 189 194 197 199 196 196 202 209 215 216 218 226 234 242 241 229 219 220 223 222 222 226 228 227 229 234 237 234 221 214 223 228 230 236 236 231 227 220 216 221 233
199 225 238 317 289 264 266 295 314 330 344 339 322 305 296 285 153 165 151 72 131 131 125 148 153 148 156 156 147 144 137 120 105 94 86 180 169 157 156 160 166 169 168 164 163 168 175 184 189 188 195 202 201 199 201 209 219 228 238 241 237 233 230 230 232 231 231 230 229 233 237 239 238 229 222 229 233 232 235 239 242 242 239 230 221 219
180 229 254 313 319 265 249 276 299 301 313 325 339 344 342 43 69 66 82 66 92 120 135 150 150 146 151 152 146 145 141 133 126 117 112 167 187 168 159 157 163 165 164 167 168 167 170 176 179 183 192 201 199 195 200 209 217 221 229 235 237 238 235 233 236 239 240 236 230 229 229 228 229 229 229 235 237 235 233 235 239 243 247 247 239 225
9 47 282 290 290 252 252 260 265 275 297 311 325 343 355 29 53 68 92 102 116 130 142 152 152 147 148 145 141 145 145 139 135 130 134 165 215 193 160 148 153 161 161 165 172 174 175 175 176 182 191 201 203 202 205 210 215 219 225 229 232 236 236 233 233 233 234 235 230 226 226 226 228 232 237 239 236 234 232 232 234 238 244 250 250 243
286 20 15 320 279 265 313 301 243 258 280 291 309 327 324 314 68 80 88 112 131 140 150 155 155 156 155 146 140 146 152 150 150 153 160 178 207 194 159 142 141 151 157 163 170 174 176 176 176 180 190 202 208 210 210 211 218 225 228 230 232 234 237 238 235 229 227 230 233 233 234 236 237 239 242 238 231 229 233 237 238 241 244 246 247 248
276 243 161 14 289 262 312 330 257 239 264 288 310 327 318 278 217 48 34 136 143 153 176 172 168 169 166 157 151 153 159 163 166 171 176 182 190 175 157 146 140 146 153 159 165 167 165 166 167 169 176 190 203 211 213 214 221 227 229 231 234 234 236 239 237 234 231 231 234 237 239 240 242 244 244 239 232 230 234 237 242 248 250 244 241 243
297 252 222 221 273 264 302 313 260 195 184 337 293 297 312 294 154 76 66 101 123 145 192 182 172 166 162 161 162 165 169 169 169 174 184 193 196 177 161 152 145 148 154 157 162 165 163 161 160 160 160 169 188 201 206 210 217 223 226 229 233 236 238 240 241 242 242 241 239 238 239 241 242 243 242 239 236 235 236 239 242 246 248 244 242 242
129 259 239 221 244 272 308 323 298 146 104 34 246 258 278 128 126 98 79 83 92 123 163 171 167 165 163 160 161 165 167 167 169 177 191 206 218 204 179 168 157 153 156 158 161 164 164 163 161 162 164 167 180 188 189 193 203 216 224 227 232 235 237 241 244 246 249 249 246 242 241 241 241 240 240 239 238 235 234 241 243 239 239 242 247 247
169 184 229 224 238 260 284 294 294 119 144 209 231 239 236 186 165 138 87 81 91 130 159 164 162 167 172 169 167 168 161 155 163 170 180 210 240 243 204 183 170 164 164 166 168 169 170 167 164 165 168 174 187 197 194 187 185 197 213 223 230 233 235 239 242 246 249 250 249 248 247 245 244 243 241 240 241 238 232 229 233 235 235 240 246 249
207 194 208 215 223 239 262 267 237 177 190 243 235 233 234 208 185 159 104 88 102 138 158 165 162 162 172 179 181 179 168 161 172 175 175 206 224 234 223 196 183 179 175 175 180 182 182 181 175 171 174 180 192 208 217 212 199 189 194 211 225 230 234 238 241 245 247 248 249 250 250 250 250 248 245 242 240 240 235 228 227 229 231 235 239 243
224 207 213 218 211 224 257 273 231 176 176 203 198 218 232 212 194 184 143 110 122 150 164 171 168 160 166 176 178 178 178 175 171 155 142 186 204 208 211 210 204 195 184 181 190 194 195 199 193 184 185 189 194 209 227 236 235 222 208 210 220 226 231 235 239 243 245 246 248 249 249 250 249 248 248 245 242 242 240 236 234 233 233 235 236 239
234 215 217 227 233 232 255 287 293 140 142 162 180 209 227 225 220 214 184 131 143 186 189 173 171 170 171 172 170 178 189 187 166 151 154 185 210 213 212 218 223 217 200 187 194 204 206 209 209 201 199 202 203 209 223 236 243 242 236 229 227 231 232 231 234 236 238 241 244 246 246 247 246 246 246 246 245 245 244 242 242 242 241 240 239 241
278 234 220 225 237 247 268 292 302 136 152 171 186 206 226 237 231 213 183 142 149 177 191 176 174 176 174 173 175 182 196 198 177 169 181 210 231 239 240 239 239 236 223 206 205 212 210 215 223 219 214 217 216 214 220 231 239 242 244 242 239 239 239 240 241 241 239 239 239 240 242 243 244 245 245 244 244 244 243 243 243 245 245 244 244 245
290 258 238 232 234 242 257 271 272 211 188 191 200 214 224 225 214 192 174 166 168 178 186 180 180 184 187 187 185 187 196 192 179 182 202 220 227 235 244 246 246 245 237 223 220 220 215 220 232 234 231 231 229 226 227 231 237 242 244 244 245 246 245 245 248 248 248 249 246 241 239 241 243 244 244 245 245 243 243 242 242 244 246 246 246 247
257 254 247 236 228 235 252 258 246 198 198 202 211 223 218 206 196 182 177 180 184 186 184 181 183 188 197 205 204 200 200 193 190 201 213 219 225 232 237 241 244 246 245 240 237 235 231 232 236 239 240 239 237 237 235 235 238 243 245 246 246 248 247 246 247 249 249 250 251 249 245 245 246 247 246 247 247 246 245 244 244 244 245 245 246 247
243 243 241 230 227 238 249 249 234 206 211 214 215 219 217 213 205 192 187 190 193 191 188 185 182 181 188 205 214 214 215 213 214 221 224 227 235 241 243 245 244 244 248 250 249 249 247 243 240 239 242 243 242 242 242 242 242 243 246 248 247 246 247 247 247 249 250 250 251 252 251 248 249 253 255 254 252 250 248 246 245 245 245 245 245 245
245 244 245 234 230 239 243 242 237 222 217 217 217 219 221 220 217 210 204 202 202 199 192 187 184 184 188 199 210 217 222 222 221 224 229 233 238 244 250 252 250 248 250 251 252 254 254 252 249 246 246 247 246 244 244 245 246 247 247 248 247 247 248 248 248 248 248 249 251 252 252 251 250 253 258 262 263 261 257 252 249 247 246 246 245 245
244 241 240 232 228 236 244 249 245 218 212 216 219 221 223 221 218 219 217 213 212 210 202 195 195 200 202 204 206 209 215 222 225 228 232 237 242 247 252 255 256 255 254 254 254 253 252 253 255 255 256 256 254 252 249 247 247 248 249 249 249 250 249 248 248 248 247 248 249 249 250 251 251 252 255 260 265 267 267 264 259 254 251 247 246 246
274 260 248 243 243 246 251 258 261 259 256 250 239 230 227 225 221 218 219 221 223 223 218 211 210 213 213 211 210 210 217 229 239 244 246 251 255 258 257 256 257 258 257 257 255 251 249 252 255 257 260 260 260 260 258 254 251 248 248 249 250 251 251 250 249 248 248 248 248 248 249 248 248 251 254 255 258 261 264 265 265 264 259 251 246 246
281 270 257 255 255 251 256 272 277 278 277 269 261 255 245 236 233 231 229 231 235 238 238 233 230 230 228 225 225 227 232 242 251 257 260 261 262 262 261 259 259 260 258 256 255 254 252 252 255 258 260 261 261 260 260 259 256 252 249 248 248 249 250 251 250 250 248 247 247 247 247 246 246 247 249 251 254 257 261 262 262 263 262 256 249 247
251 249 247 251 252 240 232 248 255 253 253 250 254 266 263 248 245 245 243 243 245 248 251 248 245 245 243 241 243 245 246 249 254 258 261 262 265 271 274 273 269 266 261 256 256 257 256 255 258 260 261 261 261 260 259 259 258 257 254 251 249 248 248 249 250 250 250 249 247 246 245 245 244 245 246 248 251 254 257 259 261 262 261 256 249 245
243 244 237 229 228 225 221 218 213 210 217 224 231 248 264 260 257 259 260 259 258 256 254 248 245 247 249 248 249 250 252 255 259 261 264 268 272 277 280 279 275 271 265 260 258 258 258 259 259 259 259 260 261 261 261 261 260 260 259 257 254 252 250 249 249 249 249 249 249 248 246 245 244 244 245 246 247 250 251 253 256 258 260 258 253 245
248 254 252 240 234 232 230 231 229 224 224 227 225 227 236 244 250 258 266 270 271 270 265 257 250 246 246 246 247 247 250 255 258 261 263 264 267 270 273 275 275 271 267 265 263 261 260 259 257 257 258 259 260 261 262 262 261 261 260 259 258 256 255 254 252 251 250 249 248 248 248 247 246 245 244 244 244 246 248 249 251 253 255 257 256 250
256 259 259 252 245 241 237 236 237 235 233 231 229 227 225 227 231 238 249 263 274 277 276 273 268 260 255 252 250 248 248 249 251 253 254 257 262 267 270 273 273 270 266 264 263 261 258 256 256 257 259 259 260 260 259 259 259 259 259 259 260 259 258 258 257 256 255 253 251 250 248 247 247 246 245 245 245 244 244 246 248 250 251 252 252 251
Height
3140 3141 3142 3143 3145 3147 3149 3150 3151 3152 3152 3152 3155 3157 3157 3157 3155 3154 3156 3160 3161 3163 3166 3168 3168 3170 3171 3170 3172 3173 3175 3177 3179 3182 3184 3186 3187 3189 3191 3194 3196 3198 3201 3202 3202 3204 3205 3206 3206 3207 3208 3209 3210 3212 3213 3215 3217 3218 3220 3221 3222 3223 3224 3226 3227 3228 3229 3230 3231 3232 3233 3234 3234 3234 3235 3236 3237 3237 3238 3238 3239 3240 3241 3242 3243 3244
3139 3140 3141 3142 3144 3146 3148 3150 3151 3152 3151 3152 3154 3155 3155 3156 3154 3153 3155 3158 3161 3161 3163 3166 3167 3169 3170 3170 3170 3172 3174 3176 3178 3180 3182 3184 3186 3188 3190 3192 3194 3197 3200 3202 3202 3204 3205 3205 3206 3207 3208 3209 3210 3212 3213 3215 3217 3218 3220 3221 3222 3223 3224 3226 3227 3228 3229 3231 3232 3233 3234 3234 3235 3236 3236 3237 3238 3238 3239 3239 3240 3241 3242 3242 3243 3244
3138 3138 3140 3142 3144 3146 3147 3149 3151 3152 3151 3151 3153 3153 3153 3154 3154 3155 3157 3158 3161 3160 3161 3165 3167 3168 3169 3170 3171 3172 3174 3176 3178 3180 3182 3184 3186 3188 3190 3192 3193 3196 3199 3201 3202 3203 3204 3204 3206 3207 3208 3209 3210 3212 3213 3215 3217 3218 3219 3220 3222 3223 3224 3226 3227 3228 3229 3231 3232 3233 3234 3235 3236 3237 3237 3238 3239 3239 3240 3241 3241 3242 3243 3243 3244 3244
3136 3137 3139 3142 3143 3145 3146 3147 3149 3151 3150 3150 3152 3152 3152 3155 3156 3156 3158 3158 3160 3160 3160 3164 3166 3167 3168 3169 3171 3173 3174 3176 3178 3179 3181 3184 3185 3187 3190 3191 3193 3195 3198 3200 3202 3203 3204 3204 3205 3207 3207 3208 3210 3212 3213 3215 3216 3218 3219 3220 3222 3223 3224 3226 3227 3228 3230 3230 3232 3233 3234 3235 3236 3237 3238 3238 3239 3240 3241 3242 3242 3243 3243 3244 3244 3245
3136 3137 3138 3140 3142 3144 3145 3147 3147 3149 3149 3149 3150 3150 3150 3154 3154 3154 3156 3157 3159 3161 3161 3163 3166 3167 3167 3169 3170 3172 3175 3176 3177 3178 3180 3182 3184 3186 3189 3190 3192 3194 3196 3199 3202 3203 3203 3203 3204 3206 3207 3208 3210 3212 3213 3215 3216 3218 3219 3220 3221 3223 3224 3225 3227 3228 3229 3230 3231 3232 3233 3235 3236 3237 3238 3239 3240 3240 3241 3242 3243 3244 3244 3245 3245 3246
3135 3137 3138 3139 3140 3142 3144 3145 3146 3147 3148 3148 3148 3148 3149 3151 3153 3155 3155 3156 3159 3161 3160 3160 3164 3166 3167 3168 3170 3172 3174 3176 3177 3178 3179 3181 3183 3185 3187 3189 3192 3194 3195 3198 3201 3203 3203 3203 3204 3206 3207 3208 3210 3212 3213 3215 3216 3218 3219 3220 3221 3223 3224 3225 3226 3228 3229 3230 3232 3233 3234 3235 3236 3238 3239 3240 3241 3241 3242 3243 3244 3245 3245 3245 3246 3246
3133 3136 3137 3138 3139 3141 3142 3143 3144 3146 3147 3146 3146 3147 3148 3150 3152 3154 3153 3153 3156 3158 3156 3157 3160 3164 3165 3167 3169 3171 3173 3174 3175 3178 3179 3180 3182 3184 3186 3188 3191 3192 3194 3197 3200 3202 3203 3202 3203 3205 3207 3208 3209 3211 3213 3214 3216 3217 3219 3220 3221 3223 3224 3225 3226 3227 3229 3231 3232 3233 3235 3236 3237 3238 3239 3240 3241 3242 3243 3244 3244 3245 3246 3246 3247 3247
3132 3133 3135 3137 3138 3139 3140 3141 3142 3144 3145 3145 3144 3146 3148 3149 3150 3151 3151 3152 3154 3154 3155 3156 3156 3159 3162 3165 3168 3170 3171 3174 3175 3176 3177 3178 3180 3182 3185 3187 3189 3191 3193 3195 3197 3201 3203 3202 3202 3205 3207 3208 3209 3211 3212 3214 3215 3217 3219 3220 3221 3222 3224 3225 3226 3227 3229 3231 3232 3234 3235 3236 3237 3238 3239 3241 3241 3242 3243 3244 3245 3245 3246 3246 3247 3248
3131 3132 3133 3135 3136 3137 3138 3139 3141 3143 3144 3144 3144 3145 3148 3149 3148 3149 3150 3151 3153 3154 3156 3157 3156 3157 3160 3163 3167 3170 3170 3171 3172 3173 3175 3177 3179 3181 3183 3185 3187 3189 3191 3193 3194 3197 3201 3202 3202 3204 3206 3208 3209 3210 3212 3213 3215 3217 3218 3220 3221 3222 3223 3225 3226 3228 3229 3231 3232 3233 3235 3236 3237 3238 3239 3240 3241 3242 3243 3244 3245 3245 3246 3247 3247 3248
3129 3131 3132 3133 3134 3136 3137 3138 3139 3141 3142 3143 3143 3143 3145 3147 3147 3147 3149 3150 3151 3152 3153 3155 3155 3156 3160 3161 3163 3166 3166 3166 3169 3171 3173 3175 3177 3179 3181 3183 3186 3188 3191 3193 3195 3196 3198 3200 3202 3203 3205 3207 3208 3210 3211 3213 3214 3216 3218 3219 3220 3222 3223 3225 3226 3228 3229 3230 3232 3233 3235 3236 3237 3238 3239 3240 3241 3242 3243 3244 3245 3245 3246 3247 3247 3248
3126 3129 3130 3131 3132 3134 3135 3136 3137 3139 3141 3142 3143 3142 3142 3143 3144 3145 3147 3148 3149 3150 3150 3153 3153 3153 3158 3160 3159 3160 3161 3163 3166 3169 3171 3173 3175 3177 3179 3181 3184 3187 3189 3192 3194 3195 3196 3198 3200 3202 3204 3206 3207 3209 3211 3212 3213 3215 3217 3218 3220 3222 3223 3224 3226 3228 3229 3231 3232 3233 3235 3236 3237 3238 3239 3240 3241 3242 3243 3244 3245 3246 3246 3247 3248 3248
3124 3126 3128 3129 3130 3133 3133 3134 3136 3138 3140 3141 3142 3143 3142 3141 3141 3143 3144 3146 3149 3149 3148 3151 3152 3151 3154 3157 3157 3159 3161 3163 3166 3167 3169 3171 3173 3175 3177 3180 3183 3185 3188 3190 3192 3194 3195 3197 3198 3200 3203 3205 3206 3207 3209 3211 3212 3215 3216 3218 3219 3221 3222 3224 3226 3227 3229 3230 3232 3233 3234 3236 3237 3238 3240 3241 3242 3243 3244 3244 3245 3246 3247 3247 3248 3248
3123 3123 3125 3127 3128 3130 3132 3133 3136 3137 3138 3140 3141 3142 3143 3142 3142 3142 3143 3145 3147 3147 3148 3149 3150 3152 3153 3153 3156 3159 3161 3163 3165 3167 3169 3170 3172 3174 3176 3179 3181 3184 3186 3188 3190 3192 3194 3196 3197 3199 3200 3202 3204 3206 3208 3210 3211 3214 3216 3217 3219 3220 3222 3223 3225 3227 3229 3230 3232 3233 3234 3236 3237 3238 3240 3241 3242 3243 3244 3245 3245 3246 3247 3248 3248 3249
3122 3122 3123 3125 3126 3128 3131 3133 3135 3136 3137 3139 3139 3140 3141 3141 3143 3144 3143 3145 3147 3147 3147 3147 3148 3152 3154 3154 3157 3159 3161 3163 3165 3168 3169 3170 3172 3174 3176 3178 3181 3183 3185 3187 3189 3190 3193 3194 3195 3197 3199 3201 3203 3205 3207 3208 3210 3213 3215 3216 3218 3220 3221 3223 3224 3226 3228 3230 3231 3233 3235 3236 3237 3238 3240 3241 3242 3244 3245 3245 3246 3246 3247 3248 3249 3249
3121 3120 3120 3123 3124 3126 3130 3132 3133 3135 3137 3137 3138 3139 3140 3140 3141 3143 3143 3145 3147 3146 3146 3146 3148 3152 3153 3155 3158 3160 3161 3163 3165 3167 3169 3170 3172 3173 3176 3177 3179 3181 3183 3185 3187 3188 3191 3193 3194 3196 3198 3201 3202 3203 3205 3207 3208 3211 3214 3215 3217 3219 3220 3222 3223 3225 3227 3229 3231 3233 3234 3236 3237 3238 3239 3240 3242 3243 3245 3245 3246 3247 3247 3248 3248 3249
3119 3119 3120 3123 3125 3126 3128 3130 3131 3133 3135 3136 3137 3137 3138 3138 3139 3141 3142 3143 3145 3145 3145 3144 3148 3152 3153 3155 3158 3160 3161 3162 3164 3166 3168 3169 3171 3172 3174 3176 3178 3180 3182 3183 3185 3186 3188 3191 3192 3194 3197 3200 3201 3202 3204 3205 3206 3208 3212 3214 3216 3218 3219 3221 3223 3224 3226 3228 3230 3232 3233 3235 3237 3238 3239 3240 3242 3243 3244 3245 3246 3247 3248 3248 3248 3249
3119 3118 3120 3123 3124 3125 3127 3129 3130 3132 3133 3135 3135 3135 3135 3137 3139 3140 3141 3141 3142 3144 3145 3146 3148 3152 3153 3156 3158 3159 3160 3161 3163 3166 3167 3168 3169 3171 3173 3174 3176 3178 3180 3181 3183 3184 3186 3188 3189 3191 3194 3198 3201 3201 3202 3204 3204 3206 3209 3212 3214 3216 3218 3219 3221 3223 3225 3227 3229 3231 3232 3234 3236 3237 3239 3240 3241 3242 3244 3245 3246 3247 3248 3248 3249 3249
3121 3118 3118 3120 3121 3122 3125 3128 3129 3131 3133 3133 3134 3134 3136 3137 3138 3139 3139 3140 3140 3141 3145 3146 3146 3148 3150 3153 3156 3159 3160 3161 3162 3164 3166 3167 3168 3170 3172 3173 3174 3176 3178 3180 3182 3183 3184 3185 3188 3190 3192 3195 3198 3200 3201 3202 3203 3204 3206 3209 3211 3213 3215 3217 3219 3221 3223 3225 3227 3229 3231 3233 3235 3236 3238 3240 3241 3242 3243 3244 3245 3246 3247 3248 3249 3249
3122 3120 3118 3120 3121 3121 3123 3126 3127 3129 3131 3132 3133 3134 3135 3135 3135 3136 3137 3139 3140 3140 3146 3150 3148 3148 3149 3150 3153 3156 3158 3160 3162 3164 3164 3165 3166 3168 3170 3171 3172 3174 3176 3178 3180 3181 3182 3184 3187 3189 3190 3192 3196 3198 3199 3199 3200 3200 3203 3206 3208 3210 3211 3213 3215 3218 3220 3222 3225 3227 3229 3231 3233 3235 3237 3239 3240 3241 3242 3243 3245 3246 3247 3248 3248 3249
3123 3122 3120 3120 3121 3120 3121 3123 3125 3128 3129 3131 3131 3132 3134 3134 3133 3134 3134 3137 3138 3138 3145 3154 3155 3152 3151 3151 3151 3153 3155 3159 3161 3162 3162 3163 3164 3166 3168 3169 3170 3172 3174 3175 3178 3179 3181 3182 3185 3186 3187 3189 3192 3195 3197 3196 3196 3197 3200 3203 3205 3207 3208 3210 3211 3214 3216 3219 3222 3225 3227 3229 3231 3233 3235 3237 3238 3240 3241 3242 3244 3245 3246 3247 3248 3249
3122 3123 3121 3118 3119 3120 3121 3122 3124 3127 3129 3131 3131 3131 3133 3133 3133 3134 3133 3135 3136 3136 3141 3150 3155 3154 3152 3152 3151 3150 3152 3156 3158 3159 3160 3161 3162 3163 3165 3167 3168 3170 3171 3172 3174 3176 3177 3180 3182 3184 3184 3185 3188 3191 3192 3191 3191 3193 3195 3198 3200 3204 3207 3210 3212 3213 3215 3217 3220 3222 3224 3227 3229 3231 3233 3235 3236 3238 3240 3241 3242 3243 3244 3246 3247 3248
3122 3123 3122 3120 3121 3121 3121 3123 3125 3126 3128 3130 3131 3131 3131 3132 3133 3134 3134 3134 3134 3134 3136 3142 3149 3154 3154 3155 3154 3152 3152 3154 3156 3158 3159 3161 3162 3163 3164 3165 3166 3167 3168 3169 3171 3172 3174 3176 3178 3180 3180 3181 3184 3186 3186 3186 3187 3189 3192 3194 3197 3201 3206 3209 3211 3213 3215 3217 3219 3220 3222 3224 3226 3229 3231 3232 3234 3236 3238 3239 3240 3242 3243 3244 3245 3246
3124 3124 3123 3123 3123 3122 3120 3123 3125 3125 3126 3128 3130 3131 3132 3132 3134 3134 3135 3134 3133 3133 3133 3136 3144 3153 3155 3155 3155 3153 3153 3155 3157 3159 3160 3161 3162 3163 3165 3165 3165 3166 3166 3167 3169 3170 3172 3174 3176 3177 3178 3179 3182 3183 3184 3186 3188 3191 3195 3198 3200 3203 3208 3209 3209 3211 3214 3215 3217 3219 3221 3222 3223 3225 3228 3230 3232 3234 3235 3237 3238 3240 3241 3242 3243 3244
3125 3125 3125 3125 3124 3123 3121 3121 3124 3125 3126 3126 3128 3130 3131 3132 3134 3134 3134 3135 3134 3134 3133 3136 3145 3153 3155 3156 3156 3154 3153 3155 3157 3159 3160 3161 3162 3163 3164 3164 3164 3166 3167 3167 3168 3170 3172 3174 3175 3176 3178 3179 3180 3182 3183 3186 3189 3192 3196 3198 3199 3202 3207 3208 3208 3210 3212 3213 3215 3218 3220 3221 3222 3223 3225 3227 3229 3231 3233 3235 3236 3237 3239 3240 3241 3242
3126 3126 3127 3127 3126 3125 3123 3122 3124 3126 3126 3126 3127 3128 3129 3131 3133 3133 3133 3133 3134 3135 3133 3135 3144 3151 3153 3156 3157 3155 3153 3154 3155 3157 3158 3159 3161 3162 3163 3164 3164 3165 3167 3167 3168 3169 3171 3173 3175 3176 3178 3179 3180 3182 3184 3186 3188 3190 3191 3193 3196 3200 3203 3205 3206 3207 3209 3211 3213 3215 3217 3219 3220 3221 3223 3225 3226 3227 3229 3231 3233 3234 3236 3237 3238 3240
3127 3127 3128 3128 3128 3129 3128 3126 3126 3127 3128 3128 3129 3128 3130 3132 3132 3132 3131 3131 3134 3137 3134 3134 3140 3147 3151 3154 3155 3154 3154 3155 3155 3156 3157 3158 3159 3161 3162 3163 3165 3165 3166 3167 3167 3169 3171 3173 3175 3176 3178 3178 3179 3181 3184 3186 3188 3188 3188 3191 3195 3198 3200 3202 3203 3205 3207 3209 3211 3212 3214 3216 3216 3216 3219 3222 3223 3224 3225 3226 3228 3230 3232 3234 3235 3237
3128 3128 3128 3128 3128 3129 3128 3127 3128 3128 3128 3129 3130 3129 3130 3132 3131 3131 3131 3131 3133 3137 3137 3136 3138 3143 3149 3153 3155 3155 3156 3156 3156 3157 3157 3157 3158 3159 3160 3162 3164 3164 3165 3165 3166 3168 3170 3172 3174 3176 3177 3178 3179 3181 3183 3185 3186 3187 3188 3190 3194 3197 3198 3199 3201 3202 3204 3206 3209 3211 3213 3215 3215 3214 3216 3220 3222 3222 3223 3224 3225 3226 3227 3229 3232 3234
3128 3128 3128 3129 3128 3128 3128 3127 3128 3128 3128 3130 3131 3129 3130 3131 3131 3130 3131 3133 3134 3136 3139 3141 3141 3142 3147 3152 3154 3155 3156 3156 3155 3156 3157 3157 3157 3158 3159 3160 3162 3163 3164 3165 3165 3167 3169 3171 3174 3175 3176 3177 3178 3180 3182 3184 3185 3186 3187 3189 3193 3196 3197 3197 3198 3200 3201 3203 3206 3209 3210 3212 3215 3214 3213 3216 3219 3220 3222 3223 3224 3225 3225 3226 3228 3230
3128 3128 3128 3129 3128 3128 3128 3127 3128 3129 3129 3129 3130 3129 3130 3130 3129 3128 3130 3132 3134 3135 3138 3142 3144 3145 3148 3152 3154 3155 3157 3157 3156 3155 3156 3157 3158 3158 3159 3159 3161 3162 3163 3164 3165 3167 3169 3171 3173 3174 3175 3176 3177 3178 3180 3182 3183 3184 3186 3188 3190 3192 3194 3195 3197 3198 3200 3201 3204 3206 3208 3210 3213 3213 3212 3214 3216 3218 3220 3222 3224 3225 3225 3225 3226 3227
3128 3128 3129 3129 3128 3127 3128 3128 3128 3129 3129 3129 3129 3129 3130 3128 3127 3128 3130 3130 3132 3135 3137 3141 3144 3147 3149 3152 3153 3154 3156 3157 3157 3157 3157 3158 3158 3159 3159 3159 3161 3162 3163 3164 3165 3167 3169 3171 3173 3174 3174 3174 3176 3177 3179 3180 3181 3182 3183 3185 3187 3189 3191 3193 3195 3196 3197 3199 3202 3204 3206 3208 3210 3210 3211 3212 3214 3216 3218 3220 3222 3224 3225 3225 3226 3226
3128 3128 3129 3129 3128 3128 3128 3128 3129 3128 3128 3128 3129 3129 3129 3129 3128 3130 3131 3131 3133 3136 3138 3140 3143 3146 3150 3151 3152 3154 3155 3155 3157 3158 3158 3158 3158 3159 3160 3160 3161 3162 3163 3164 3165 3167 3169 3171 3173 3174 3174 3174 3175 3176 3178 3179 3180 3180 3181 3183 3185 3187 3189 3191 3193 3195 3196 3198 3200 3201 3203 3205 3206 3206 3208 3209 3211 3213 3215 3217 3219 3221 3223 3224 3225 3225
3128 3128 3129 3129 3129 3128 3127 3128 3129 3129 3129 3129 3130 3130 3130 3131 3131 3132 3133 3133 3134 3137 3139 3141 3142 3146 3149 3151 3152 3153 3154 3154 3156 3157 3157 3158 3158 3159 3160 3161 3162 3163 3164 3165 3166 3167 3169 3171 3172 3174 3174 3174 3174 3175 3177 3178 3179 3180 3181 3182 3183 3185 3187 3189 3191 3194 3195 3195 3196 3198 3200 3201 3203 3204 3205 3207 3208 3210 3212 3214 3217 3218 3220 3221 3223 3223
3128 3128 3129 3129 3129 3128 3127 3128 3129 3129 3130 3130 3131 3131 3131 3131 3133 3133 3133 3133 3133 3135 3138 3141 3143 3145 3147 3149 3151 3153 3153 3154 3155 3156 3157 3157 3158 3159 3160 3161 3162 3163 3165 3166 3167 3168 3170 3171 3172 3173 3174 3174 3174 3175 3176 3178 3178 3179 3180 3182 3183 3184 3185 3186 3188 3191 3192 3192 3193 3195 3197 3199 3200 3202 3203 3205 3207 3209 3210 3212 3214 3215 3217 3218 3219 3220
3127 3128 3129 3130 3129 3128 3128 3128 3128 3129 3131 3130 3131 3132 3132 3132 3133 3132 3132 3133 3133 3134 3137 3140 3143 3145 3147 3149 3151 3152 3153 3154 3156 3157 3157 3158 3158 3159 3160 3161 3162 3163 3165 3166 3167 3169 3170 3171 3172 3173 3174 3174 3174 3175 3176 3177 3178 3178 3180 3181 3182 3183 3184 3185 3186 3187 3188 3190 3191 3193 3195 3197 3198 3200 3201 3203 3205 3207 3209 3210 3211 3212 3213 3215 3216 3217
3127 3127 3128 3129 3129 3129 3129 3129 3128 3130 3131 3131 3132 3133 3133 3133 3133 3131 3132 3134 3135 3135 3136 3140 3143 3145 3146 3147 3149 3151 3153 3154 3156 3157 3158 3158 3159 3160 3161 3161 3162 3164 3165 3166 3167 3169 3170 3171 3173 3174 3174 3174 3174 3174 3175 3177 3177 3178 3179 3181 3181 3182 3183 3184 3185 3186 3187 3188 3189 3191 3193 3195 3196 3198 3199 3201 3203 3205 3207 3208 3209 3209 3211 3212 3214 3214
3126 3127 3127 3128 3129 3129 3130 3130 3130 3130 3130 3131 3132 3133 3133 3133 3132 3132 3134 3137 3138 3138 3138 3140 3144 3147 3146 3146 3148 3151 3153 3154 3155 3157 3158 3159 3159 3160 3161 3162 3162 3164 3165 3166 3167 3168 3169 3171 3172 3173 3174 3174 3174 3174 3174 3176 3177 3178 3178 3179 3180 3181 3182 3183 3183 3184 3185 3186 3187 3189 3191 3193 3194 3195 3197 3198 3200 3201 3203 3206 3207 3208 3209 3210 3210 3211
3126 3127 3127 3128 3128 3129 3130 3130 3130 3130 3130 3131 3132 3132 3133 3133 3132 3133 3135 3139 3141 3141 3141 3142 3145 3147 3147 3147 3149 3150 3152 3154 3155 3156 3158 3158 3158 3159 3160 3161 3162 3163 3164 3166 3166 3167 3168 3170 3171 3173 3174 3174 3174 3173 3174 3175 3176 3177 3178 3178 3178 3179 3180 3181 3182 3183 3183 3184 3185 3187 3188 3190 3191 3192 3194 3195 3197 3198 3200 3202 3203 3204 3205 3206 3207 3208
3126 3127 3127 3127 3128 3128 3129 3129 3130 3130 3131 3131 3131 3132 3132 3133 3134 3135 3137 3140 3142 3143 3144 3144 3145 3147 3147 3147 3148 3150 3152 3153 3155 3156 3157 3157 3157 3157 3158 3159 3160 3162 3163 3165 3166 3166 3167 3168 3170 3171 3173 3173 3174 3174 3174 3174 3175 3176 3177 3178 3178 3178 3179 3180 3180 3181 3182 3182 3183 3184 3186 3187 3188 3189 3190 3192 3194 3195 3197 3198 3200 3201 3201 3202 3203 3204
3126 3126 3127 3127 3127 3128 3128 3129 3129 3130 3130 3131 3131 3131 3132 3133 3135 3136 3138 3141 3143 3144 3145 3146 3147 3147 3147 3147 3148 3149 3151 3152 3153 3155 3155 3154 3155 3156 3157 3158 3158 3160 3162 3164 3164 3165 3166 3167 3168 3170 3171 3172 3173 3174 3174 3174 3174 3175 3176 3177 3177 3178 3178 3179 3180 3180 3181 3181 3181 3182 3183 3183 3184 3185 3186 3188 3190 3192 3194 3195 3196 3197 3198 3199 3200 3200
3125 3126 3126 3127 3127 3127 3128 3129 3129 3129 3130 3130 3130 3130 3132 3134 3135 3136 3139 3141 3142 3142 3143 3145 3146 3147 3148 3148 3148 3149 3150 3151 3152 3153 3153 3153 3153 3154 3155 3156 3157 3158 3160 3162 3163 3163 3165 3165 3166 3167 3169 3170 3172 3173 3173 3173 3173 3174 3175 3176 3176 3177 3177 3178 3179 3179 3180 3180 3180 3180 3180 3181 3181 3182 3183 3185 3186 3188 3189 3191 3192 3193 3194 3195 3197 3198
3125 3125 3126 3126 3127 3128 3128 3129 3129 3129 3129 3129 3129 3130 3132 3134 3135 3136 3138 3139 3140 3140 3141 3142 3144 3146 3148 3148 3148 3149 3150 3150 3149 3150 3150 3151 3152 3152 3153 3154 3155 3157 3158 3160 3160 3161 3163 3164 3164 3165 3167 3168 3169 3171 3171 3172 3172 3172 3173 3174 3175 3175 3176 3176 3177 3177 3178 3178 3178 3179 3179 3179 3179 3180 3181 3182 3183 3184 3185 3187 3188 3189 3190 3191 3192 3194
3125 3125 3125 3126 3127 3127 3128 3128 3128 3128 3127 3127 3128 3130 3132 3133 3133 3134 3136 3137 3137 3138 3140 3141 3142 3145 3146 3147 3147 3148 3148 3147 3146 3147 3148 3148 3149 3150 3151 3152 3153 3154 3156 3157 3157 3159 3161 3162 3162 3163 3164 3164 3166 3168 3169 3169 3170 3170 3171 3171 3172 3173 3174 3174 3175 3175 3176 3176 3177 3177 3177 3177 3177 3178 3178 3179 3179 3180 3181 3182 3183 3184 3185 3186 3188 3190
3125 3125 3125 3126 3126 3127 3127 3127 3126 3126 3126 3126 3128 3130 3131 3131 3132 3133 3134 3135 3136 3138 3140 3140 3141 3143 3145 3145 3146 3146 3146 3146 3146 3146 3147 3148 3148 3148 3148 3149 3151 3152 3153 3153 3154 3156 3158 3159 3159 3160 3160 3161 3163 3165 3166 3166 3167 3167 3168 3169 3170 3170 3171 3172 3173 3173 3174 3174 3175 3175 3176 3176 3176 3176 3176 3176 3177 3177 3178 3178 3179 3180 3180 3182 3184 3185
3125 3125 3125 3125 3126 3126 3125 3125 3125 3124 3124 3125 3127 3128 3130 3131 3132 3133 3134 3134 3135 3137 3139 3140 3140 3142 3142 3142 3143 3143 3144 3144 3145 3146 3146 3147 3147 3146 3145 3145 3147 3150 3151 3150 3151 3153 3154 3155 3155 3156 3157 3158 3160 3162 3162 3163 3164 3164 3165 3166 3166 3167 3168 3169 3171 3171 3171 3172 3172 3173 3174 3174 3174 3175 3174 3174 3174 3175 3175 3175 3175 3176 3176 3177 3179 3181
3124 3124 3124 3124 3125 3124 3124 3124 3124 3123 3123 3125 3126 3128 3129 3130 3130 3132 3133 3133 3134 3135 3137 3138 3139 3140 3140 3139 3140 3141 3141 3141 3143 3144 3144 3144 3145 3145 3144 3143 3144 3146 3147 3147 3148 3150 3151 3151 3151 3152 3153 3154 3156 3157 3158 3159 3160 3161 3161 3162 3163 3164 3165 3166 3167 3168 3169 3169 3170 3170 3171 3172 3172 3172 3172 3172 3172 3172 3172 3172 3172 3172 3172 3173 3175 3177
3122 3123 3123 3124 3124 3124 3123 3123 3124 3123 3123 3124 3126 3127 3128 3129 3129 3130 3131 3132 3132 3133 3135 3136 3137 3138 3139 3138 3139 3139 3139 3139 3139 3140 3142 3142 3142 3142 3142 3141 3140 3141 3142 3144 3145 3146 3147 3147 3147 3148 3149 3150 3151 3152 3153 3154 3156 3156 3157 3158 3159 3160 3161 3162 3163 3164 3165 3166 3167 3167 3168 3169 3169 3170 3170 3170 3170 3170 3170 3170 3170 3169 3169 3170 3171 3172
3121 3121 3122 3122 3122 3123 3123 3123 3123 3123 3122 3122 3123 3125 3126 3127 3128 3128 3129 3129 3130 3130 3131 3133 3135 3136 3137 3138 3138 3138 3139 3138 3138 3139 3140 3140 3139 3137 3137 3137 3137 3137 3139 3140 3141 3142 3143 3144 3144 3144 3145 3146 3147 3148 3148 3149 3150 3151 3152 3154 3154 3155 3156 3157 3158 3160 3161 3162 3163 3164 3164 3165 3166 3166 3167 3167 3167 3167 3167 3167 3167 3167 3166 3166 3167 3168
3119 3119 3120 3120 3121 3122 3123 3122 3122 3122 3122 3122 3122 3122 3124 3125 3125 3125 3126 3126 3127 3127 3128 3130 3131 3133 3134 3134 3134 3135 3136 3137 3137 3137 3137 3136 3135 3134 3134 3135 3135 3135 3135 3136 3136 3138 3139 3140 3141 3141 3141 3142 3142 3143 3144 3144 3145 3146 3147 3148 3150 3151 3152 3152 3153 3154 3156 3157 3158 3160 3160 3161 3162 3162 3163 3164 3164 3165 3165 3165 3165 3165 3164 3164 3164 3164
3117 3118 3118 3119 3119 3119 3120 3120 3120 3121 3122 3122 3122 3122 3121 3121 3121 3122 3122 3123 3124 3125 3126 3127 3128 3129 3129 3129 3129 3130 3131 3132 3133 3133 3133 3132 3132 3131 3130 3131 3131 3131 3131 3132 3133 3134 3135 3136 3137 3137 3137 3138 3138 3139 3140 3140 3141 3142 3143 3143 3144 3145 3146 3147 3148 3149 3151 3152 3153 3154 3155 3156 3157 3158 3159 3160 3161 3161 3161 3162 3162 3162 3162 3161 3161 3161
3115 3116 3116 3117 3117 3117 3117 3118 3118 3119 3120 3120 3120 3121 3120 3119 3119 3120 3119 3119 3120 3121 3123 3124 3126 3126 3126 3126 3126 3127 3128 3128 3129 3129 3129 3129 3128 3127 3127 3128 3128 3128 3128 3129 3130 3130 3131 3132 3132 3133 3133 3134 3135 3136 3136 3137 3137 3138 3138 3139 3140 3140 3141 3142 3143 3144 3145 3146 3147 3148 3150 3151 3152 3153 3154 3155 3156 3157 3158 3158 3158 3159 3159 3159 3158 3158
3113 3114 3114 3114 3114 3114 3114 3115 3116 3117 3117 3117 3117 3118 3118 3118 3118 3119 3118 3117 3117 3117 3118 3120 3122 3123 3123 3123 3123 3124 3124 3125 3125 3125 3125 3125 3124 3124 3124 3124 3125 3125 3126 3126 3127 3127 3127 3127 3128 3129 3130 3131 3132 3133 3133 3133 3133 3134 3134 3134 3135 3136 3137 3137 3138 3139 3140 3141 3142 3143 3144 3145 3146 3148 3149 3150 3151 3152 3153 3154 3154 3155 3155 3155 3155 3155